Hourly Data Report for March 26, 2021

KUGAARUK CLIMATE
NUNAVUT
Current Station Operator: ECCC - MSC

68°32'15.060" N
89°47'47.020" W
15.80 m
2303094
71407
NBB

Download Data

Hourly Data (March 2021)
Hourly Data Report for March 26, 2021
TIME
LST
Temp Definition
°C
Dew Point Definition
°C
Rel Hum Definition
%
Precip. Amount Definition
mm

Wind Dir Definition
10's deg

Wind Spd Definition
km/h
Visibility Definition
km
Stn Press Definition
kPa
Hmdx Definition


Wind Chill Definition


Weather Definition


00:00 -22.7 -28.7 58 0.0 23 31   102.50   -36 LegendNANA
01:00 -24.9 -31.3 56 0.0 25 19   102.51   -36 LegendNANA
02:00 -23.8 -30.6 53 0.0 22 26   102.47   -37 LegendNANA
03:00 -23.3 -30.4 52 0.0 22 28   102.43   -36 LegendNANA
04:00 -22.8 -28.9 58 0.0 22 33   102.37   -37 LegendNANA
05:00 -22.7 -29.6 53 0.0 22 25   102.34   -35 LegendNANA
06:00 -22.7 -30.2 50 0.0 25 20   102.27   -34 LegendNANA
07:00 -20.9 -28.4 51 0.0 23 26   102.20   -33 LegendNANA
08:00 -20.4 -27.7 52 0.0 23 25   102.13   -32 LegendNANA
09:00 -19.8 -27.1 52 0.0 21 26   102.05   -32 LegendNANA
10:00 -19.4 -26.4 54 0.0 10 12   101.98   -27 LegendNANA
11:00 -18.7 -26.1 52 0.0 10 6   101.91   -24 LegendNANA
12:00 -17.5 -23.4 60 0.0 19 7   101.83   -23 LegendNANA
13:00 -17.6 -21.7 70 0.0 18 27   101.73   -29 LegendNANA
14:00 -19.0 -22.3 75 0.0 15 26   101.60   -31 LegendNANA
15:00 -17.3 -20.4 77 0.0 18 36   101.48   -30 LegendNANA
16:00 -17.8 -21.1 75 0.0 19 35   101.40   -30 LegendNANA
17:00 -18.3 -21.4 77 0.0 19 37   101.30   -31 LegendNANA
18:00 -18.7 -21.9 76 0.0 19 40   101.23   -32 LegendNANA
19:00 -19.4 -22.9 74 0.0 19 31   101.17   -32 LegendNANA
20:00 -19.6 -23.1 73 0.0 19 32   101.10   -32 LegendNANA
21:00 -19.3 -22.8 73 0.0 20 31   101.05   -32 LegendNANA
22:00 -18.9 -22.4 74 0.0 20 31   100.99   -31 LegendNANA
23:00 -18.9 -22.3 74 0.2 21 31   100.93   -31 LegendNANA

Notes on Data Quality.

Legend

  • E = Estimated
  • M = Missing
  • NA = Not Available*
  • [empty] = Indicates an unobserved value
Date modified: